When you browse on this site, cookies collect data to enhance your experience and personalize the content and advertising you see.
Visit our Privacy Policy to learn more. By continuing to use the site, you agree to this use of cookies and data.
  • Em Portugal
  • Lista de países
  • Para 7 dias
  • Temperatura da água
  • Mapas de satélite
  • Mapa do tempo
  • Widgets de tempo
  • user-avatar
    Iniciar Sessão

    Previsão horária em Verhniy Katruh

    Hoje, 20 Junho, Quinta-feira

    Tempo Temperatura Precipitação Vento Pressão Humidade
    00:00 +10°C° 0 mm 1 m/s 585 mmHg 89%
    01:00 +10°C° 0 mm 1 m/s 585 mmHg 89%
    02:00 +9°C° 0 mm 1 m/s 584 mmHg 89%
    03:00 +9°C° 0 mm 1 m/s 584 mmHg 90%
    04:00 +10°C° 0 mm 1 m/s 585 mmHg 88%
    05:00 +12°C° 0 mm 1 m/s 586 mmHg 85%
    06:00 +12°C° 0 mm 0 m/s 586 mmHg 83%
    07:00 +14°C° 0.2 mm 1 m/s 587 mmHg 80%
    08:00 +16°C° 0.2 mm 2 m/s 587 mmHg 76%
    09:00 +17°C° 0 mm 2 m/s 588 mmHg 73%
    10:00 +17°C° 1.3 mm 2 m/s 588 mmHg 73%
    11:00 +17°C° 1.3 mm 2 m/s 588 mmHg 74%
    12:00 +17°C° 1.3 mm 2 m/s 588 mmHg 75%
    13:00 +17°C° 1.5 mm 2 m/s 587 mmHg 74%
    14:00 +17°C° 1.5 mm 2 m/s 587 mmHg 74%
    15:00 +17°C° 0 mm 2 m/s 587 mmHg 74%
    16:00 +17°C° 0.7 mm 2 m/s 587 mmHg 74%
    17:00 +16°C° 0.7 mm 2 m/s 586 mmHg 75%
    18:00 +16°C° 0.7 mm 2 m/s 586 mmHg 76%
    19:00 +14°C° 0.2 mm 1 m/s 586 mmHg 79%
    20:00 +12°C° 0.2 mm 1 m/s 585 mmHg 82%
    21:00 +11°C° 0.2 mm 1 m/s 585 mmHg 85%
    22:00 +11°C° 0 mm 1 m/s 585 mmHg 85%
    23:00 +11°C° 0 mm 1 m/s 585 mmHg 85%

    Amanhã, 21 Junho, Sexta-feira

    Tempo Temperatura Precipitação Vento Pressão Humidade
    00:00 +11°C° 0 mm 1 m/s 585 mmHg 85%
    01:00 +10°C° 0 mm 1 m/s 584 mmHg 85%
    02:00 +10°C° 0 mm 1 m/s 584 mmHg 85%
    03:00 +10°C° 0 mm 1 m/s 584 mmHg 85%
    04:00 +11°C° 0 mm 1 m/s 585 mmHg 84%
    05:00 +12°C° 0 mm 1 m/s 585 mmHg 82%
    06:00 +13°C° 0 mm 1 m/s 586 mmHg 81%
    07:00 +14°C° 0.3 mm 1 m/s 587 mmHg 77%
    08:00 +15°C° 0.3 mm 2 m/s 587 mmHg 73%
    09:00 +16°C° 0.3 mm 2 m/s 588 mmHg 69%
    10:00 +16°C° 0.9 mm 2 m/s 588 mmHg 70%
    11:00 +16°C° 0.9 mm 2 m/s 588 mmHg 72%
    12:00 +16°C° 0.9 mm 2 m/s 587 mmHg 73%
    13:00 +16°C° 1.1 mm 2 m/s 587 mmHg 74%
    14:00 +16°C° 1.1 mm 2 m/s 587 mmHg 75%
    15:00 +15°C° 1.1 mm 2 m/s 587 mmHg 76%
    16:00 +15°C° 0.5 mm 2 m/s 587 mmHg 78%
    17:00 +15°C° 0.5 mm 2 m/s 587 mmHg 80%
    18:00 +14°C° 0.5 mm 2 m/s 587 mmHg 82%
    19:00 +13°C° 0 mm 1 m/s 586 mmHg 85%
    20:00 +11°C° 0 mm 1 m/s 586 mmHg 88%
    21:00 +10°C° 0 mm 1 m/s 586 mmHg 91%
    22:00 +10°C° 0 mm 1 m/s 586 mmHg 90%
    23:00 +9°C° 0 mm 1 m/s 585 mmHg 89%

    Depois de amanhã, 22 Junho, Sábado

    Tempo Temperatura Precipitação Vento Pressão Humidade
    00:00 +9°C° 0 mm 1 m/s 585 mmHg 88%
    01:00 +9°C° 0 mm 1 m/s 585 mmHg 86%
    02:00 +9°C° 0 mm 1 m/s 585 mmHg 84%
    03:00 +9°C° 0 mm 1 m/s 585 mmHg 82%
    04:00 +10°C° 0 mm 1 m/s 586 mmHg 79%
    05:00 +11°C° 0 mm 1 m/s 587 mmHg 77%
    06:00 +13°C° 0 mm 1 m/s 588 mmHg 74%
    07:00 +14°C° 0 mm 1 m/s 588 mmHg 70%
    08:00 +16°C° 0 mm 1 m/s 589 mmHg 67%
    09:00 +17°C° 0 mm 2 m/s 590 mmHg 63%
    10:00 +18°C° 0.9 mm 2 m/s 590 mmHg 66%
    11:00 +18°C° 0.9 mm 2 m/s 590 mmHg 68%
    12:00 +18°C° 0.9 mm 2 m/s 590 mmHg 71%
    13:00 +18°C° 1.7 mm 2 m/s 590 mmHg 72%
    14:00 +18°C° 1.7 mm 2 m/s 590 mmHg 73%
    15:00 +18°C° 1.7 mm 2 m/s 589 mmHg 73%
    16:00 +18°C° 1.1 mm 2 m/s 589 mmHg 75%
    17:00 +18°C° 1.1 mm 1 m/s 589 mmHg 76%
    18:00 +18°C° 1.1 mm 1 m/s 589 mmHg 77%
    19:00 +15°C° 0.2 mm 1 m/s 588 mmHg 80%
    20:00 +13°C° 0.2 mm 1 m/s 588 mmHg 83%
    21:00 +12°C° 0.2 mm 1 m/s 587 mmHg 85%
    22:00 +11°C° 0 mm 1 m/s 587 mmHg 85%
    23:00 +11°C° 0 mm 1 m/s 587 mmHg 86%

    23 Junho, Domingo

    Tempo Temperatura Precipitação Vento Pressão Humidade
    00:00 +11°C° 0 mm 1 m/s 587 mmHg 86%
    01:00 +11°C° 0 mm 1 m/s 587 mmHg 85%
    02:00 +11°C° 0 mm 1 m/s 587 mmHg 84%
    03:00 +10°C° 0 mm 2 m/s 587 mmHg 83%
    04:00 +12°C° 0 mm 1 m/s 588 mmHg 80%
    05:00 +14°C° 0 mm 1 m/s 588 mmHg 77%
    06:00 +15°C° 0 mm 1 m/s 589 mmHg 74%
    07:00 +16°C° 0 mm 1 m/s 590 mmHg 68%
    08:00 +19°C° 0 mm 1 m/s 590 mmHg 62%
    09:00 +19°C° 0 mm 2 m/s 591 mmHg 57%
    10:00 +20°C° 0.3 mm 2 m/s 591 mmHg 57%
    11:00 +20°C° 0.3 mm 2 m/s 591 mmHg 58%
    12:00 +21°C° 0.3 mm 3 m/s 591 mmHg 58%
    13:00 +21°C° 0.3 mm 3 m/s 591 mmHg 58%
    14:00 +21°C° 0.3 mm 2 m/s 591 mmHg 57%
    15:00 +21°C° 0.3 mm 2 m/s 591 mmHg 57%
    16:00 +21°C° 0.1 mm 2 m/s 591 mmHg 60%
    17:00 +20°C° 0.1 mm 2 m/s 590 mmHg 63%
    18:00 +20°C° 0.1 mm 1 m/s 590 mmHg 66%
    19:00 +18°C° 0 mm 1 m/s 589 mmHg 70%
    20:00 +15°C° 0 mm 1 m/s 588 mmHg 74%
    21:00 +13°C° 0 mm 1 m/s 588 mmHg 78%
    22:00 +13°C° 0 mm 1 m/s 587 mmHg 78%
    23:00 +13°C° 0 mm 1 m/s 587 mmHg 78%

    24 Junho, Segunda-feira

    Tempo Temperatura Precipitação Vento Pressão Humidade
    00:00 +12°C° 0 mm 2 m/s 587 mmHg 77%
    01:00 +12°C° 0 mm 2 m/s 587 mmHg 76%
    02:00 +12°C° 0 mm 1 m/s 587 mmHg 74%
    03:00 +12°C° 0 mm 1 m/s 587 mmHg 72%
    04:00 +14°C° 0 mm 1 m/s 588 mmHg 70%
    05:00 +15°C° 0 mm 1 m/s 589 mmHg 67%
    06:00 +18°C° 0 mm 1 m/s 589 mmHg 65%
    07:00 +19°C° 0 mm 1 m/s 590 mmHg 61%
    08:00 +21°C° 0 mm 1 m/s 591 mmHg 57%
    09:00 +21°C° 0 mm 2 m/s 591 mmHg 53%
    10:00 +23°C° 0.4 mm 2 m/s 591 mmHg 54%
    11:00 +23°C° 0.4 mm 2 m/s 591 mmHg 54%
    12:00 +23°C° 0.4 mm 2 m/s 591 mmHg 55%
    13:00 +23°C° 0.8 mm 2 m/s 591 mmHg 56%
    14:00 +23°C° 0.8 mm 2 m/s 591 mmHg 56%
    15:00 +23°C° 0.8 mm 2 m/s 591 mmHg 57%
    16:00 +21°C° 0.6 mm 2 m/s 590 mmHg 60%
    17:00 +22°C° 0.6 mm 1 m/s 590 mmHg 64%
    18:00 +21°C° 0.6 mm 1 m/s 590 mmHg 68%
    19:00 +19°C° 0.1 mm 1 m/s 589 mmHg 71%
    20:00 +16°C° 0.1 mm 1 m/s 588 mmHg 74%
    21:00 +14°C° 0.1 mm 1 m/s 588 mmHg 77%
    22:00 +14°C° 0.2 mm 1 m/s 588 mmHg 78%
    23:00 +13°C° 0.2 mm 1 m/s 588 mmHg 78%

    25 Junho, Terça-feira

    Tempo Temperatura Precipitação Vento Pressão Humidade
    00:00 +13°C° 0.2 mm 1 m/s 588 mmHg 78%
    01:00 +13°C° 0.1 mm 1 m/s 588 mmHg 77%
    02:00 +13°C° 0.1 mm 1 m/s 588 mmHg 76%
    03:00 +13°C° 0.1 mm 1 m/s 588 mmHg 76%
    04:00 +14°C° 0 mm 1 m/s 588 mmHg 72%
    05:00 +15°C° 0 mm 1 m/s 589 mmHg 69%
    06:00 +18°C° 0 mm 1 m/s 590 mmHg 66%
    07:00 +19°C° 0 mm 1 m/s 590 mmHg 61%
    08:00 +19°C° 0 mm 2 m/s 591 mmHg 55%
    09:00 +20°C° 0 mm 2 m/s 591 mmHg 50%
    10:00 +21°C° 0.4 mm 2 m/s 592 mmHg 52%
    11:00 +21°C° 0.4 mm 2 m/s 592 mmHg 53%
    12:00 +22°C° 0.4 mm 3 m/s 592 mmHg 55%
    13:00 +21°C° 0.9 mm 2 m/s 591 mmHg 55%
    14:00 +21°C° 0.9 mm 2 m/s 591 mmHg 56%
    15:00 +21°C° 0.9 mm 2 m/s 591 mmHg 56%
    16:00 +20°C° 0.4 mm 2 m/s 591 mmHg 59%
    17:00 +20°C° 0.4 mm 2 m/s 591 mmHg 62%
    18:00 +20°C° 0.4 mm 1 m/s 590 mmHg 65%
    19:00 +18°C° 0 mm 1 m/s 589 mmHg 69%
    20:00 +15°C° 0 mm 1 m/s 589 mmHg 73%
    21:00 +13°C° 0 mm 1 m/s 588 mmHg 77%
    22:00 +13°C° 0 mm 1 m/s 588 mmHg 78%
    23:00 +12°C° 0 mm 1 m/s 587 mmHg 78%
    Mostrar mais